DMSP 5D-2 F11 DEB, 28300

Orbit data source: Space-Track

DMSP 5D-2 F11 DEB, 28300 is space debris in SSO originally from a launch on Thu, 28 Nov 1991 UTC launched from the Air Force Western Test Range (AFWTR). Debris objects in space refer to the collection of defunct objects orbiting the Earth. Examples of debris include non-operational satellites, rocket bodies, and fragments generated from explosions, collisions, or faulty payload assembly.

Loading next visibility...
Identifier
28300, 1991-082M
Orbit
SSO
Country
Flag of USUS
Related business
Manufacturer
Unknown
Mission
Spacecraft
Bus & Motor
Unknown
Mass
Unknown
Launch date (UTC)
1991-11-28 (34 years ago)
Launch vehicle
Unknown
Launch site
Air Force Western Test Range (AFWTR)
Object type
Payload
Rocket body
Debris
Shape & HBR
Unknown shape, 0.1 m
Radar Cross Section
Small (<0.1 m²)

Expand to show TLE details & history
Last TLE update: 1 day ago

TLE from 1 day ago
0 DMSP 5D-2 F11 DEB
1 28300U 91082M   25348.59862911  .00003640  00000-0  11395-2 0  9990
2 28300  98.5519  35.9393 0008498  94.5080  60.1729 14.41262136125776
Epoch: 2025-12-14T14:22Z
TLE epoch observation values (Epoch: 2025-12-14T14:22:01.555Z)
Latitude
24.96417°
Longitude
-79.08348°
Altitude
754.368 km
Speed
7.481 km/s
True Right ascension
14h 39m 43s
True Declination
24° 49' 58"
Sunlit
Object was in daylight at epoch
Visualization orbit readout
Latitude
Unknown
Longitude
Unknown
Altitude
Unknown
Speed
Unknown
Apparent Right ascension
Unknown
Apparent Declination
Unknown
Sunlit
N/A
Visualization observer readout
Local Sidereal Time
13:18:19
Azimuth
Unknown
Elevation
Unknown
Doppler factor
Unknown
Orbital elements
Apogee altitude
757.513 km
Perigee altitude
745.395 km
Semi-major axis
7,129.591 km
Eccentricity
0.00085
Inclination
98.5519°
RAAN
35.9393°
Arg. of periapsis
94.508°
True anomaly
60.25742°
Mean anomaly
60.1729°
Eccentric anomaly
60.21516°
Mean motion
3.60534 °/min
Orbital period
99.85 mins
BSTAR
0.0011395
Loading maneuver chart data...
Computing Atmospheric mass density...

Documentation

Showing up to 5 results
|